[[{"header":{"parameterUnit":"m.s-1","parameterCategory":1,"la1":30.2991,"la2":30.254,"lo1":-89.0895,"lo2":-89.0444,"dy":0.0017,"dx":0.0017,"nx":28,"ny":28,"refTime":"2024-12-07T03:00:00:Z","depth":0,"parameterNumber":2,"parameterNumberName":"U-component_of_WINDS"},"data":[0,0,0,0,0,0,0,0,0,0,0,0,0,0,0,0,0,0,0,0,0,0,0,0,0,0,0,0,0,0,0,0,0,0,0,0,0,0,0,0,0,0,0,0,0,0,0,0,0,0,0,0,0,0,0,0,0,0,-2.0832,-2.0831,0,-2.0779,-2.0778,-2.0778,-2.0679,-2.0677,-2.0676,-2.0674,-2.0623,-2.0623,-2.0624,0,0,0,0,0,0,0,0,0,0,0,0,0,-2.0851,-2.0851,-2.0832,-2.0831,-2.083,-2.0779,-2.0778,-2.0778,-2.068,-2.0677,-2.0675,-2.0673,-2.0623,-2.0623,-2.0624,0,0,0,0,0,0,0,0,0,0,0,0,0,-2.0825,-2.0851,-2.0832,-2.0775,-2.077,-2.0779,-2.0778,-2.0777,-2.068,-2.0677,-2.0674,-2.0672,-2.0623,-2.0623,-2.0624,-2.0685,0,0,-2.0626,-2.0626,0,0,0,0,0,0,0,0,-2.0826,-2.0824,-2.0784,-2.0779,-2.0773,-2.0733,-2.0766,-2.0747,-2.0681,-2.0714,-2.0674,-2.067,-2.0662,-2.0659,-2.0656,-2.0683,-2.0681,-2.0626,-2.0626,-2.0626,-2.0627,0,0,0,0,0,0,0,-2.0828,-2.0826,-2.0811,-2.0784,-2.0777,-2.0754,-2.0747,-2.0762,-2.0705,-2.0711,-2.0704,-2.0699,-2.0658,-2.0655,-2.0654,-2.068,-2.0626,-2.0626,-2.0627,-2.0627,-2.0757,-2.076,0,0,0,0,0,0,-2.0838,-2.0828,-2.0812,-2.0809,-2.0793,-2.0756,-2.0748,-2.0749,-2.0704,-2.0695,-2.0701,-2.0694,-2.0656,-2.0653,-2.0652,-2.0722,-2.0626,-2.0627,-2.0627,-2.0754,-2.0757,-2.0761,0,0,0,0,0,0,-2.0839,-2.0837,-2.0815,-2.0817,-2.0812,-2.0758,-2.076,-2.0749,-2.0746,-2.0697,-2.0687,-2.0709,-2.0653,-2.0651,-2.0678,-2.0719,-2.0627,-2.0628,-2.075,-2.0755,-2.0759,-2.0864,0,0,0,0,0,0,-2.084,-2.0838,-2.086,-2.0818,-2.0812,-2.0841,-2.0762,-2.075,-2.0747,-2.0737,-2.0701,-2.0692,-2.0651,-2.0677,-2.0679,-2.0718,-2.0628,-2.0746,-2.0752,-2.0758,-2.0856,-2.0871,-2.0884,0,0,0,0,0,-2.0841,-2.0892,-2.0862,-2.0861,-2.0838,-2.0844,-2.0841,-2.0791,-2.0751,-2.0773,-2.0742,-2.0693,-2.0714,-2.0681,-2.0681,-2.0722,-2.0743,-2.0751,-2.0757,-2.085,-2.0868,-2.0884,0,0,0,0,0,0,-2.0942,-2.0885,-2.0851,-2.089,-2.0873,-2.0827,-2.0854,-2.0811,-2.0805,-2.0797,-2.0736,-2.0729,-2.0765,-2.0745,-2.071,-2.078,-2.0721,-2.0729,-2.0792,-2.0809,-2.0822,-2.0827,-2.0629,0,0,0,0,0,-2.0968,-2.0976,-2.0927,-2.0966,-2.0959,-2.0908,-2.0908,-2.0872,-2.0851,-2.0843,-2.0814,-2.0797,-2.0799,-2.0802,-2.0802,-2.0852,-2.0844,-2.0881,-2.0894,-2.0906,-2.0914,-2.0941,-2.0958,-2.0783,-2.0783,-2.0783,0,0,-2.1024,-2.0994,-2.1003,-2.0986,-2.0967,-2.0979,-2.0902,-2.0917,-2.0925,-2.0846,-2.087,-2.0848,-2.0825,-2.0864,-2.088,-2.085,-2.096,-2.0915,-2.0924,-2.0926,-2.095,-2.0967,-2.0981,-2.0788,-2.0787,-2.0786,0,0,-2.1131,-2.1108,-2.1139,-2.1123,-2.1096,-2.1062,-2.107,-2.103,-2.1013,-2.1036,-2.0977,-2.0986,-2.0991,-2.0978,-2.0972,-2.1075,-2.1031,-2.1076,-2.1149,-2.1177,-2.1191,-2.1202,-2.1242,-2.1256,-2.1083,-2.1084,-2.1084,0,-2.1204,-2.1217,-2.1161,-2.118,-2.1175,-2.1102,-2.1135,-2.1121,-2.1096,-2.1095,-2.106,-2.1067,-2.1046,-2.1082,-2.1108,-2.1104,-2.1113,-2.1081,-2.1193,-2.1204,-2.1215,-2.1251,-2.1266,-2.1089,-2.1089,-2.1088,-2.1088,0,-2.1309,-2.1319,-2.1348,-2.1325,-2.1323,-2.1348,-2.1297,-2.1302,-2.1266,-2.1236,-2.1261,-2.1234,-2.1227,-2.1233,-2.1197,-2.1265,-2.1247,-2.1203,-2.1143,-2.1238,-2.1272,-2.1285,-2.1098,-2.1096,-2.1094,-2.1093,0,0,-2.148,-2.1426,-2.1437,-2.1427,-2.1392,-2.14,-2.1422,-2.1415,-2.1421,-2.1406,-2.1425,-2.1432,-2.1392,-2.1385,-2.1347,-2.1371,-2.1457,-2.1324,-2.1323,-2.1352,-2.1533,-2.1568,-2.1585,-2.1427,-2.1429,-2.1431,-2.1536,0,-2.1582,-2.1616,-2.1567,-2.1614,-2.1624,-2.1555,-2.1575,-2.1557,-2.1529,-2.1535,-2.1504,-2.1511,-2.1456,-2.1452,-2.1472,-2.1443,-2.1493,-2.1434,-2.1446,-2.1448,-2.1457,-2.1602,-2.1638,-2.1739,-2.1548,-2.155,-2.1552,0,-2.1705,-2.1696,-2.1744,-2.1707,-2.1709,-2.1728,-2.1719,-2.1724,-2.1702,-2.1681,-2.1674,-2.1628,-2.165,-2.159,-2.1619,-2.158,-2.1582,-2.1568,-2.1571,-2.1572,-2.1507,-2.161,-2.1769,-2.1785,-2.1572,-2.157,-2.1569,0,-2.1828,-2.1828,-2.1856,-2.1849,-2.1807,-2.1822,-2.1805,-2.178,-2.178,-2.1771,-2.1771,-2.1765,-2.1763,-2.1761,-2.1716,-2.1676,-2.1752,-2.1688,-2.1737,-2.1739,-2.1758,-2.1758,-2.1923,-2.1755,-2.1755,-2.1755,-2.1755,0,-2.1948,-2.1981,-2.1911,-2.193,-2.1965,-2.1907,-2.1944,-2.192,-2.1899,-2.1912,-2.1852,-2.1867,-2.1805,-2.1813,-2.1778,-2.181,-2.1809,-2.1794,-2.1785,-2.1801,-2.1803,-2.1803,-2.1796,-2.1759,-2.1758,-2.1757,-2.1757,0,-2.2093,-2.2047,-2.2075,-2.2032,-2.2022,-2.205,-2.2014,-2.203,-2.1998,-2.2016,-2.2017,-2.1968,-2.1975,-2.1929,-2.1927,-2.1904,-2.1953,-2.1931,-2.1961,-2.1955,-2.2008,-2.2005,-2.218,-2.2202,-2.2018,-2.202,-2.2022,0,-2.2174,-2.2197,-2.2157,-2.2161,-2.2147,-2.2155,-2.2154,-2.2099,-2.21,-2.2078,-2.2097,-2.2099,-2.2097,-2.2111,-2.2076,-2.2075,-2.2054,-2.2115,-2.2054,-2.207,-2.2058,-2.2059,-2.2062,-2.213,-2.2132,-2.2134,-2.2135,0,-2.2324,-2.23,-2.23,-2.2293,-2.2294,-2.2286,-2.2274,-2.2281,-2.2221,-2.2227,-2.2232,-2.2231,-2.2229,-2.2232,-2.2224,-2.2208,-2.2163,-2.2155,-2.2166,-2.2185,-2.2202,-2.2196,-2.1999,-2.2151,-2.215,-2.2149,-2.2148,-2.2147,-2.244,-2.2459,-2.2434,-2.2437,-2.2422,-2.2412,-2.2425,-2.2395,-2.2399,-2.2393,-2.236,-2.2372,-2.2351,-2.2335,-2.2324,-2.2333,-2.2304,-2.2321,-2.2325,-2.2331,-2.2342,-2.2198,-2.2331,-2.2331,-2.233,-2.233,-2.2329,0,-2.2589,-2.257,-2.2573,-2.2558,-2.2561,-2.2516,-2.2501,-2.2507,-2.2518,-2.2501,-2.2501,-2.2508,-2.2511,-2.2477,-2.2476,-2.249,-2.247,-2.2492,-2.2492,-2.249,-2.2366,-2.2358,-2.2509,-2.2509,-2.2509,-2.2509,-2.2509,-2.2509,-2.2667,-2.2697,-2.267,-2.2692,-2.2672,-2.2683,-2.2679,-2.2671,-2.2657,-2.2668,-2.267,-2.2647,-2.2624,-2.262,-2.2622,-2.2612,-2.2615,-2.2646,-2.2629,-2.2515,-2.2498,-2.2481,-2.2473,-2.2646,-2.2646,-2.2751,-2.2752,-2.2753]},{"header":{"parameterUnit":"m.s-1","parameterCategory":1,"la1":30.2991,"la2":30.254,"lo1":-89.0895,"lo2":-89.0444,"dy":0.0017,"dx":0.0017,"nx":28,"ny":28,"refTime":"2024-12-07T03:00:00:Z","depth":0,"parameterNumber":3,"parameterNumberName":"V-component_of_WINDS"},"data":[0,0,0,0,0,0,0,0,0,0,0,0,0,0,0,0,0,0,0,0,0,0,0,0,0,0,0,0,0,0,0,0,0,0,0,0,0,0,0,0,0,0,0,0,0,0,0,0,0,0,0,0,0,0,0,0,0,0,-0.4397,-0.4398,0,-0.4442,-0.4443,-0.4443,-0.444,-0.444,-0.4439,-0.4438,-0.4484,-0.4486,-0.4488,0,0,0,0,0,0,0,0,0,0,0,0,0,-0.4308,-0.4309,-0.4397,-0.4398,-0.4398,-0.4442,-0.4443,-0.4444,-0.444,-0.444,-0.4439,-0.4438,-0.4484,-0.4486,-0.4488,0,0,0,0,0,0,0,0,0,0,0,0,0,-0.4349,-0.431,-0.4397,-0.4402,-0.4403,-0.4442,-0.4443,-0.4444,-0.4441,-0.444,-0.4439,-0.4438,-0.4483,-0.4486,-0.4489,-0.4526,0,0,-0.4497,-0.4498,0,0,0,0,0,0,0,0,-0.4347,-0.4352,-0.4401,-0.4402,-0.4403,-0.4435,-0.4428,-0.4471,-0.4441,-0.4426,-0.4438,-0.4437,-0.4469,-0.4473,-0.4483,-0.4528,-0.453,-0.4497,-0.4499,-0.45,-0.4501,0,0,0,0,0,0,0,-0.4344,-0.435,-0.4415,-0.4402,-0.4403,-0.4402,-0.4407,-0.4436,-0.4453,-0.4428,-0.4427,-0.4433,-0.4469,-0.4481,-0.4484,-0.453,-0.4497,-0.45,-0.4501,-0.4502,-0.4608,-0.4609,0,0,0,0,0,0,-0.434,-0.4348,-0.4414,-0.4416,-0.4372,-0.4404,-0.441,-0.4426,-0.4452,-0.4455,-0.4434,-0.4433,-0.4476,-0.4481,-0.4486,-0.4532,-0.45,-0.4503,-0.4504,-0.4607,-0.4608,-0.461,0,0,0,0,0,0,-0.4338,-0.4346,-0.4412,-0.4382,-0.4391,-0.4407,-0.4425,-0.4427,-0.4439,-0.4457,-0.446,-0.4443,-0.4476,-0.4482,-0.4516,-0.4533,-0.4504,-0.4506,-0.4606,-0.4607,-0.4609,-0.4624,0,0,0,0,0,0,-0.4335,-0.4345,-0.436,-0.4383,-0.4392,-0.4441,-0.4426,-0.4429,-0.4443,-0.4442,-0.4466,-0.4469,-0.4475,-0.4512,-0.4519,-0.4537,-0.4509,-0.4604,-0.4606,-0.4608,-0.4622,-0.4626,-0.4629,0,0,0,0,0,-0.4332,-0.4362,-0.436,-0.4368,-0.4411,-0.4442,-0.4448,-0.4455,-0.4445,-0.446,-0.4471,-0.4468,-0.453,-0.4515,-0.4523,-0.4542,-0.4603,-0.4606,-0.4608,-0.462,-0.4625,-0.4629,0,0,0,0,0,0,-0.4341,-0.4365,-0.4364,-0.4402,-0.442,-0.4442,-0.4461,-0.446,-0.4481,-0.448,-0.4487,-0.4492,-0.4527,-0.4537,-0.4521,-0.458,-0.4565,-0.4569,-0.4572,-0.4576,-0.458,-0.4578,-0.4511,0,0,0,0,0,-0.4347,-0.4371,-0.4391,-0.4422,-0.4431,-0.4444,-0.4458,-0.4462,-0.4482,-0.4489,-0.4503,-0.4522,-0.4546,-0.4561,-0.4584,-0.4623,-0.4628,-0.464,-0.4643,-0.4646,-0.465,-0.4672,-0.4678,-0.4618,-0.4618,-0.4618,0,0,-0.436,-0.4376,-0.4391,-0.4424,-0.4439,-0.4464,-0.4451,-0.4478,-0.4496,-0.4493,-0.4527,-0.4537,-0.4559,-0.4595,-0.4612,-0.4606,-0.4668,-0.4649,-0.4652,-0.4654,-0.4675,-0.4681,-0.4686,-0.462,-0.4619,-0.4619,0,0,-0.4397,-0.4412,-0.444,-0.4455,-0.4477,-0.4485,-0.4492,-0.4514,-0.4521,-0.4555,-0.4553,-0.4575,-0.4615,-0.4631,-0.4644,-0.4686,-0.4685,-0.4693,-0.4713,-0.4734,-0.4739,-0.4743,-0.476,-0.4765,-0.4697,-0.4697,-0.4697,0,-0.4411,-0.4449,-0.4455,-0.4482,-0.4496,-0.4495,-0.4523,-0.4537,-0.4566,-0.4576,-0.4568,-0.4619,-0.4633,-0.4674,-0.4684,-0.4694,-0.4702,-0.4691,-0.4738,-0.4742,-0.4746,-0.4762,-0.4768,-0.4698,-0.4698,-0.4698,-0.4697,0,-0.4465,-0.4491,-0.4511,-0.4539,-0.4556,-0.4583,-0.4593,-0.4609,-0.4611,-0.462,-0.4654,-0.4671,-0.4697,-0.4707,-0.4709,-0.4748,-0.4743,-0.4736,-0.4722,-0.4753,-0.4768,-0.4774,-0.4699,-0.4699,-0.4699,-0.4698,0,0,-0.451,-0.4541,-0.4548,-0.4561,-0.4585,-0.4605,-0.4632,-0.4658,-0.4673,-0.4692,-0.4715,-0.4749,-0.4743,-0.4758,-0.4761,-0.478,-0.4813,-0.4771,-0.4771,-0.4779,-0.4858,-0.4865,-0.4871,-0.4811,-0.4812,-0.4813,-0.4857,0,-0.4551,-0.4601,-0.4606,-0.465,-0.4674,-0.4672,-0.4696,-0.4713,-0.4722,-0.4744,-0.4753,-0.4778,-0.4767,-0.4776,-0.4794,-0.4805,-0.4829,-0.4802,-0.4834,-0.4835,-0.4831,-0.4879,-0.4886,-0.4926,-0.4863,-0.4864,-0.4864,0,-0.4606,-0.4627,-0.4674,-0.4694,-0.4705,-0.4726,-0.475,-0.4771,-0.479,-0.4795,-0.4812,-0.4812,-0.4841,-0.4824,-0.4863,-0.4844,-0.4857,-0.4865,-0.4866,-0.4871,-0.4853,-0.4886,-0.4939,-0.4946,-0.4873,-0.4872,-0.4872,0,-0.4636,-0.4676,-0.4709,-0.472,-0.4745,-0.476,-0.4771,-0.4789,-0.4804,-0.4825,-0.4835,-0.4859,-0.4872,-0.489,-0.4897,-0.4884,-0.4936,-0.492,-0.4942,-0.4942,-0.4955,-0.4954,-0.5012,-0.496,-0.496,-0.496,-0.496,0,-0.4682,-0.4711,-0.4723,-0.4744,-0.4776,-0.4782,-0.4813,-0.4823,-0.4839,-0.4862,-0.4861,-0.4882,-0.4889,-0.4911,-0.4917,-0.4949,-0.4954,-0.496,-0.4961,-0.4961,-0.4961,-0.4971,-0.4969,-0.4962,-0.4961,-0.4961,-0.4961,0,-0.4723,-0.4732,-0.4768,-0.4788,-0.4794,-0.4817,-0.4834,-0.4854,-0.4862,-0.489,-0.4897,-0.491,-0.4936,-0.4944,-0.4975,-0.4979,-0.5017,-0.5015,-0.5011,-0.5012,-0.5034,-0.5032,-0.5102,-0.5112,-0.5052,-0.5052,-0.5053,0,-0.4752,-0.4775,-0.4797,-0.4812,-0.4824,-0.4848,-0.4863,-0.4869,-0.4886,-0.4909,-0.4926,-0.4952,-0.4973,-0.5014,-0.5026,-0.505,-0.505,-0.5073,-0.5054,-0.5053,-0.5052,-0.5052,-0.5054,-0.5077,-0.5077,-0.5078,-0.5078,0,-0.4805,-0.4808,-0.4831,-0.4855,-0.4873,-0.4892,-0.4911,-0.4923,-0.4932,-0.495,-0.4977,-0.4993,-0.5025,-0.5051,-0.5075,-0.5086,-0.5084,-0.5084,-0.5091,-0.5091,-0.5089,-0.5092,-0.5023,-0.5083,-0.5082,-0.5082,-0.5082,-0.5082,-0.4842,-0.4862,-0.4881,-0.4906,-0.492,-0.4938,-0.4957,-0.4968,-0.499,-0.5017,-0.5019,-0.5048,-0.5066,-0.5098,-0.511,-0.5133,-0.5127,-0.5136,-0.5139,-0.5141,-0.5144,-0.5083,-0.5137,-0.5137,-0.5137,-0.5137,-0.5137,0,-0.4895,-0.4907,-0.493,-0.4956,-0.4976,-0.4972,-0.4992,-0.5009,-0.5034,-0.5052,-0.5072,-0.5103,-0.5128,-0.5141,-0.5166,-0.5182,-0.5181,-0.5188,-0.5188,-0.5191,-0.5147,-0.514,-0.5188,-0.5188,-0.5188,-0.5188,-0.5188,-0.5188,-0.4926,-0.4959,-0.4965,-0.5005,-0.5017,-0.5046,-0.5058,-0.5074,-0.5088,-0.5122,-0.5143,-0.5151,-0.5167,-0.5193,-0.5215,-0.5219,-0.5229,-0.5236,-0.5239,-0.5199,-0.5194,-0.5189,-0.5182,-0.5238,-0.5238,-0.5281,-0.5281,-0.5281]}]]